Location: *
(51.1248°S, 108.4023°W)
Time: 01:57:50
(UTC+00:00)

N. Korean satellite - Pass Details

Date: 05 October 2021
Orbit: 450 x 494 km, 97.3° (Epoch: 27 October)

Event Time Altitude Azimuth Distance (km) Brightness Sun altitude
Rises 11:46:43 0° 5° (N) 2,579 10.1 -7.7°
Reaches altitude 10° 11:48:49 10° 0° (N) 1,700 9.2 -7.4°
Maximum altitude 11:52:26 57° 281° (W) 593 6.7 -6.9°
Drops below altitude 10° 11:56:03 10° 201° (SSW) 1,703 9.3 -6.3°
Sets 11:58:10 0° 196° (SSW) 2,584 10.3 -6.0°
